Weather in Sovetskaya Khakasiya

Russia / Republic of Khakassia     54°06′46″N   91°26′04″E
temp.,
°C
wind,
m/s
gust,
m/s
humid.,
%
clouds,
%
prec.,
mm/h
press.,
hPa
HPBL,
m
27 january, wed
wed2701:00−33ese119540 0.0 104219
04:00−33se119495 0.0 104019
07:00−30se129698 0.0 103828
10:00−26se2298100 0.2 1034115
13:00−22sse2397100 1.7 1028230
16:00−19s2496100 1.3 1024177
19:00−16s2396100 1.6 1024100
22:00−13ssw2391100 0.0 102373
28 january, thu
thu2801:00−9ssw2388100 0.1 102375
04:00−7sw3881100 0.0 1023203
07:00−8sw3779100 0.0 1025150
10:00−7wsw2583100 0.0 1027178
13:00−7wnw2485100 0.1 1027370
16:00−7nw1389100 0.1 1027105
19:00−9w1187100 0.1 102721
22:00−8ssw2284100 0.0 102538
29 january, fri
fri2901:00−7sse2286100 0.0 102438
04:00−7sse2286100 0.1 102149
07:00−6sw3882100 0.1 1020220
10:00−4sw61377100 0.0 1017615
13:00−2sw81474100 0.0 1015783
16:00−3nw41488100 0.6 10161471
19:00−7w41072100 0.6 1020215
22:00−7wsw3774100 0.0 1021165
30 january, sat
sat3001:00−9ssw3382100 0.0 102241
04:00−11ssw2382100 0.0 102231
07:00−10sw3481100 0.0 102376
10:00−7sw51173100 0.0 1024392
13:00−9nnw3786100 0.1 1025628
16:00−15nne5793100 0.2 1027383
19:00−22n589495 0.3 1033234
22:00−28nnw469329 0.0 103895
31 january, sun
sun3101:00−31n229414 0.0 104219
04:00−33n22950 0.0 104319
07:00−34ne11950 0.0 104519
10:00−32ese119147 0.0 104519
13:00−27se128967 0.0 1042210
16:00−26ese119221 0.0 1040104
19:00−31ese019524 0.0 104019
22:00−30ssw11930 0.0 103819